Regional Weather Roundup
Issued by NWS

Home | Current Version | Previous Version | Text Only | Print | Product List | Glossary Off
Versions: 1 2 3 4 5 6 7 8 9 10 11 12 13 14 15 16 17 18 19 20 21 22 23 24 25 26 27 28 29 30 31 32 33 34 35 36 37 38 39 40 41 42 43 44 45 46 47 48 49 50

000
ASUS43 KLSX 231559
RWRMO

WEATHER SUMMARY FOR MISSOURI
NATIONAL WEATHER SERVICE SPRINGFIELD MO
1100 AM CDT THU OCT 23 2014

NOTE: "FAIR" INDICATES FEW OR NO CLOUDS BELOW 12,000 FEET WITH NO
       SIGNIFICANT WEATHER AND/OR OBSTRUCTIONS TO VISIBILITY.
       CURRENT SKY AND/OR WEATHER CONDITIONS ARE NOT AVAILABLE FOR
       CHILLICOTHE AND FARMINGTON.

MOZ001>031-035>038-043-044-053-054-231700-
...NORTHERN AND WESTERN MISSOURI...

CITY           SKY/WX    TMP DP  RH WIND       PRES   REMARKS
KANSAS CTY INT CLOUDY    63  60  90 SW9       30.10R
KANSAS C DTWN  PTSUNNY   65  60  84 S10       30.10R
LEE`S SUMMIT   CLOUDY    60  57  89 S8        30.12R
ST JOSEPH      CLOUDY    63  60  90 SW5       30.09R
CHILLICOTHE      N/A     63  56  78 S9        30.12R
KIRKSVILLE     PTSUNNY   58  51  78 S9        30.13S

$$
MOZ066>068-077>081-088>096-101>105-231700-
...SOUTHWEST MISSOURI...

CITY           SKY/WX    TMP DP  RH WIND       PRES   REMARKS
SPRINGFIELD    LGT RAIN  54  48  80 S7        30.19R
JOPLIN         LGT RAIN  57  55  93 S8        30.18F

$$
MOZ032>034-039>042-045>050-055>058-069>072-231700-
...CENTRAL MISSOURI...

CITY           SKY/WX    TMP DP  RH WIND       PRES   REMARKS
COLUMBIA       CLOUDY    57  47  69 S8        30.15F
JEFFERSON CITY CLOUDY    58  45  62 S6        30.17F
ROLLA          CLOUDY    55  43  63 S15       30.17F
SEDALIA        CLOUDY    58  48  69 SW9       30.16R
OSAGE BEACH    CLOUDY    55  43  62 S8        30.17F

$$
MOZ051-052-059>065-231700-
...EAST CENTRAL MISSOURI...

CITY           SKY/WX    TMP DP  RH WIND       PRES   REMARKS
ST LOUIS INTL  PTSUNNY   60  42  51 S12       30.21F
SPIRIT OF STL  PTSUNNY   57  43  59 S7        30.20F
ST CHARLES     PTSUNNY   56  45  66 S8        30.20F

$$
MOZ072>076-082>087-097>100-106>115-231700-
...SOUTH CENTRAL AND SOUTHEAST MISSOURI...

CITY           SKY/WX    TMP DP  RH WIND       PRES   REMARKS
CAPE GIRARDEAU MOSUNNY   57  46  66 SE3       30.24F
FARMINGTON     MOSUNNY   55  43  62 S12       30.24S
POPLAR BLUFF   CLOUDY    52  44  74 CALM      30.23R
WEST PLAINS    CLOUDY    53  43  68 SE5       30.23S

$$



USA.gov is the U.S. government's official web portal to all federal, state and local government web resources and services.